[[{"header":{"parameterUnit":"m.s-1","parameterCategory":2,"la1":30.2991,"la2":30.254,"lo1":-89.0895,"lo2":-89.0444,"dy":0.0017,"dx":0.0017,"nx":28,"ny":28,"refTime":"2024-09-25T21:00:00:Z","depth":"0","parameterNumber":2,"parameterNumberName":"U-component_of_CURRENTS"},"data":[0,0,0,0,0,0,0,0,0,0,0,0,0,0,0,0,0,0,0,0,0,0,0,0,0,0,0,0,0,0,0,0,0,0,0,0,0,0,0,0,0,0,0,0,0,0,0,0,0,0,0,0,0,0,0,0,0,0,-0.2679,-0.2679,0,-0.2721,-0.2721,-0.2721,-0.2711,-0.2711,-0.2711,-0.271,-0.2663,-0.2662,-0.2661,0,0,0,0,0,0,0,0,0,0,0,0,0,-0.2557,-0.2559,-0.2679,-0.2679,-0.268,-0.2721,-0.2721,-0.2721,-0.2711,-0.2711,-0.271,-0.271,-0.2663,-0.2662,-0.2661,0,0,0,0,0,0,0,0,0,0,0,0,0,-0.2602,-0.256,-0.2678,-0.2684,-0.2685,-0.2721,-0.2721,-0.2721,-0.2712,-0.2711,-0.271,-0.271,-0.2664,-0.2662,-0.2661,-0.2665,0,0,-0.2657,-0.2656,0,0,0,0,0,0,0,0,-0.2599,-0.2605,-0.2682,-0.2684,-0.2685,-0.2714,-0.2661,-0.2699,-0.2712,-0.2697,-0.271,-0.271,-0.2675,-0.2673,-0.2677,-0.2662,-0.266,-0.2657,-0.2656,-0.2655,-0.2655,0,0,0,0,0,0,0,-0.2596,-0.2603,-0.2691,-0.2683,-0.2685,-0.2673,-0.2679,-0.2668,-0.2684,-0.2698,-0.2699,-0.2711,-0.2675,-0.2678,-0.2676,-0.266,-0.2657,-0.2656,-0.2655,-0.2654,-0.266,-0.266,0,0,0,0,0,0,-0.2603,-0.2601,-0.2689,-0.2692,-0.2645,-0.2676,-0.2682,-0.2702,-0.2686,-0.2685,-0.2711,-0.271,-0.2681,-0.2677,-0.2674,-0.2677,-0.2655,-0.2654,-0.2653,-0.2659,-0.266,-0.2661,0,0,0,0,0,0,-0.26,-0.261,-0.2688,-0.265,-0.266,-0.268,-0.2701,-0.2703,-0.2715,-0.2697,-0.2694,-0.2722,-0.268,-0.2676,-0.2666,-0.2675,-0.2654,-0.2652,-0.2658,-0.2659,-0.266,-0.2683,0,0,0,0,0,0,-0.2596,-0.2609,-0.2629,-0.2651,-0.2663,-0.2712,-0.2702,-0.2704,-0.2725,-0.2724,-0.2706,-0.27,-0.268,-0.2669,-0.2665,-0.2673,-0.2651,-0.2656,-0.2658,-0.266,-0.2681,-0.2685,-0.2689,0,0,0,0,0,-0.2592,-0.2625,-0.2629,-0.264,-0.2688,-0.2713,-0.2717,-0.2726,-0.2726,-0.2733,-0.2718,-0.2701,-0.2678,-0.2668,-0.2664,-0.2671,-0.2655,-0.2658,-0.266,-0.268,-0.2684,-0.2688,0,0,0,0,0,0,-0.259,-0.2629,-0.2633,-0.2679,-0.2695,-0.2713,-0.2724,-0.2735,-0.2732,-0.2725,-0.2707,-0.2701,-0.27,-0.2687,-0.2677,-0.2681,-0.2667,-0.2668,-0.2683,-0.2688,-0.2691,-0.2677,-0.265,0,0,0,0,0,-0.2598,-0.2626,-0.2656,-0.2689,-0.2695,-0.271,-0.2724,-0.273,-0.2733,-0.2732,-0.2723,-0.2711,-0.2707,-0.2697,-0.269,-0.2686,-0.2683,-0.2692,-0.2696,-0.2699,-0.2686,-0.2692,-0.2694,-0.2668,-0.2668,-0.2668,0,0,-0.2608,-0.2632,-0.265,-0.2689,-0.2695,-0.2713,-0.2715,-0.2734,-0.2747,-0.2726,-0.2731,-0.2725,-0.2711,-0.2709,-0.2707,-0.2695,-0.2712,-0.2701,-0.2704,-0.2689,-0.2694,-0.2697,-0.2699,-0.2669,-0.2669,-0.2669,0,0,-0.2623,-0.2656,-0.2671,-0.2687,-0.2707,-0.272,-0.273,-0.2749,-0.2751,-0.276,-0.275,-0.2743,-0.2742,-0.2725,-0.2719,-0.274,-0.2736,-0.2752,-0.2748,-0.2755,-0.2757,-0.2758,-0.2784,-0.2787,-0.2747,-0.2747,-0.2747,0,-0.2623,-0.2654,-0.268,-0.2693,-0.2706,-0.2725,-0.2736,-0.2751,-0.2766,-0.2767,-0.2762,-0.2765,-0.2745,-0.2743,-0.2743,-0.2744,-0.2759,-0.273,-0.2758,-0.2759,-0.276,-0.2786,-0.2789,-0.2748,-0.2748,-0.2748,-0.2748,0,-0.2637,-0.2665,-0.2673,-0.2696,-0.2719,-0.273,-0.2755,-0.2772,-0.2782,-0.2791,-0.2798,-0.2777,-0.2774,-0.2776,-0.2757,-0.2762,-0.2776,-0.2767,-0.2743,-0.2764,-0.2791,-0.2794,-0.275,-0.275,-0.275,-0.2749,0,0,-0.2598,-0.2669,-0.2662,-0.2679,-0.2716,-0.2734,-0.2762,-0.2785,-0.2809,-0.2811,-0.2834,-0.2806,-0.2799,-0.2791,-0.2779,-0.2771,-0.2789,-0.2768,-0.2768,-0.2787,-0.2827,-0.2764,-0.2761,-0.2791,-0.2792,-0.2792,-0.2852,0,-0.2579,-0.2614,-0.2653,-0.2681,-0.2698,-0.2736,-0.2767,-0.2797,-0.2822,-0.2853,-0.2835,-0.2849,-0.2807,-0.281,-0.2794,-0.2794,-0.2794,-0.2774,-0.2809,-0.281,-0.2744,-0.2761,-0.2624,-0.2659,-0.2855,-0.2855,-0.2856,0,-0.2548,-0.2583,-0.2611,-0.2681,-0.2688,-0.2713,-0.2766,-0.2797,-0.2849,-0.2869,-0.2877,-0.2886,-0.2871,-0.2844,-0.2831,-0.2827,-0.282,-0.2818,-0.2821,-0.2747,-0.275,-0.2665,-0.2657,-0.2654,-0.286,-0.286,-0.286,0,-0.2484,-0.2541,-0.2566,-0.2585,-0.2671,-0.2688,-0.2725,-0.2787,-0.2813,-0.2878,-0.2907,-0.2912,-0.2911,-0.2902,-0.2877,-0.2864,-0.2884,-0.2871,-0.2814,-0.2812,-0.269,-0.2675,-0.2667,-0.2867,-0.2867,-0.2867,-0.2866,0,-0.2439,-0.2454,-0.2539,-0.2552,-0.2579,-0.2652,-0.2685,-0.2736,-0.2807,-0.2825,-0.2894,-0.2905,-0.2923,-0.2936,-0.2913,-0.2868,-0.291,-0.2809,-0.2813,-0.2697,-0.2683,-0.2669,-0.268,-0.2869,-0.2868,-0.2868,-0.2868,0,-0.236,-0.242,-0.2451,-0.2532,-0.2551,-0.2566,-0.2642,-0.2661,-0.2758,-0.279,-0.2809,-0.2897,-0.2902,-0.2932,-0.2935,-0.2899,-0.2823,-0.2861,-0.2733,-0.2718,-0.2624,-0.2642,-0.2583,-0.2508,-0.2799,-0.2797,-0.2796,0,-0.2328,-0.2334,-0.2405,-0.2402,-0.243,-0.247,-0.2483,-0.2601,-0.2621,-0.2753,-0.2744,-0.2819,-0.2805,-0.283,-0.2811,-0.2798,-0.2766,-0.2673,-0.2595,-0.2593,-0.2617,-0.26,-0.2539,-0.2468,-0.2464,-0.2461,-0.2459,0,-0.2246,-0.2265,-0.2279,-0.2277,-0.2286,-0.2311,-0.2344,-0.2367,-0.2489,-0.2543,-0.2582,-0.2605,-0.2662,-0.2602,-0.2637,-0.2593,-0.2578,-0.2606,-0.2629,-0.2366,-0.2321,-0.2258,-0.2488,-0.2431,-0.2434,-0.2436,-0.2438,-0.2439,-0.2152,-0.2128,-0.2129,-0.2112,-0.2122,-0.2108,-0.2092,-0.2151,-0.2184,-0.2251,-0.2358,-0.2407,-0.244,-0.245,-0.2423,-0.2357,-0.2381,-0.2278,-0.2309,-0.2301,-0.2178,-0.2353,-0.2279,-0.2281,-0.2282,-0.2284,-0.2285,0,-0.2009,-0.1982,-0.1956,-0.1932,-0.188,-0.1944,-0.1953,-0.1927,-0.1919,-0.2051,-0.2093,-0.2219,-0.2162,-0.2218,-0.2184,-0.2106,-0.2031,-0.2059,-0.2007,-0.1964,-0.2137,-0.207,-0.1916,-0.1916,-0.1916,-0.1916,-0.1916,-0.1916,-0.1922,-0.1839,-0.1821,-0.169,-0.167,-0.1583,-0.1564,-0.1564,-0.1632,-0.1725,-0.1886,-0.2047,-0.2124,-0.2206,-0.2088,-0.1984,-0.1933,-0.1847,-0.19,-0.2046,-0.207,-0.2092,-0.2032,-0.1873,-0.1873,-0.1624,-0.1622,-0.1621]},{"header":{"parameterUnit":"m.s-1","parameterCategory":2,"la1":30.2991,"la2":30.254,"lo1":-89.0895,"lo2":-89.0444,"dy":0.0017,"dx":0.0017,"nx":28,"ny":28,"refTime":"2024-09-25T21:00:00:Z","depth":"0","parameterNumber":3,"parameterNumberName":"V-component_of_CURRENTS"},"data":[0,0,0,0,0,0,0,0,0,0,0,0,0,0,0,0,0,0,0,0,0,0,0,0,0,0,0,0,0,0,0,0,0,0,0,0,0,0,0,0,0,0,0,0,0,0,0,0,0,0,0,0,0,0,0,0,0,0,-0.0682,-0.0682,0,-0.0663,-0.0663,-0.0662,-0.0619,-0.0619,-0.0618,-0.0618,-0.0539,-0.0538,-0.0536,0,0,0,0,0,0,0,0,0,0,0,0,0,-0.0679,-0.0679,-0.0682,-0.0682,-0.0682,-0.0663,-0.0663,-0.0662,-0.062,-0.0619,-0.0618,-0.0617,-0.054,-0.0538,-0.0536,0,0,0,0,0,0,0,0,0,0,0,0,0,-0.0669,-0.0679,-0.0682,-0.0661,-0.0659,-0.0663,-0.0663,-0.0662,-0.062,-0.0619,-0.0618,-0.0617,-0.054,-0.0538,-0.0536,-0.0539,0,0,-0.0529,-0.0528,0,0,0,0,0,0,0,0,-0.067,-0.0669,-0.0664,-0.0663,-0.0661,-0.0646,-0.0633,-0.0619,-0.062,-0.0631,-0.0618,-0.0617,-0.0572,-0.0567,-0.0562,-0.0536,-0.0532,-0.0529,-0.0527,-0.0526,-0.0526,0,0,0,0,0,0,0,-0.0671,-0.067,-0.0672,-0.0665,-0.0662,-0.0652,-0.0649,-0.063,-0.0603,-0.063,-0.0628,-0.0631,-0.057,-0.0564,-0.056,-0.0531,-0.0529,-0.0527,-0.0525,-0.0524,-0.0447,-0.0446,0,0,0,0,0,0,-0.0681,-0.067,-0.0672,-0.0671,-0.0667,-0.0653,-0.065,-0.0649,-0.0605,-0.0599,-0.0632,-0.0629,-0.0569,-0.0562,-0.0557,-0.0507,-0.0526,-0.0524,-0.0523,-0.0448,-0.0447,-0.0446,0,0,0,0,0,0,-0.068,-0.0681,-0.0673,-0.0673,-0.0672,-0.0654,-0.0653,-0.0649,-0.0644,-0.0607,-0.0599,-0.0632,-0.0568,-0.056,-0.0517,-0.0506,-0.0523,-0.0521,-0.0448,-0.0447,-0.0446,-0.0441,0,0,0,0,0,0,-0.068,-0.0681,-0.0685,-0.0674,-0.0672,-0.0665,-0.0654,-0.0649,-0.0649,-0.0645,-0.0605,-0.0597,-0.0566,-0.0521,-0.0515,-0.0503,-0.0519,-0.0449,-0.0448,-0.0447,-0.0442,-0.0439,-0.0438,0,0,0,0,0,-0.068,-0.0689,-0.0686,-0.0686,-0.0678,-0.0665,-0.0663,-0.0646,-0.065,-0.064,-0.0605,-0.0598,-0.0509,-0.0518,-0.0511,-0.0498,-0.045,-0.0448,-0.0447,-0.0442,-0.044,-0.0438,0,0,0,0,0,0,-0.069,-0.0686,-0.0681,-0.0688,-0.0674,-0.0659,-0.0656,-0.0654,-0.0624,-0.0619,-0.0587,-0.0575,-0.0532,-0.052,-0.0531,-0.0472,-0.048,-0.0477,-0.0479,-0.0476,-0.0474,-0.0482,-0.0517,0,0,0,0,0,-0.0697,-0.07,-0.0689,-0.0693,-0.0688,-0.0677,-0.0674,-0.0663,-0.0638,-0.0625,-0.0595,-0.0562,-0.0523,-0.0504,-0.0468,-0.0442,-0.0425,-0.043,-0.0428,-0.0427,-0.0428,-0.0389,-0.0384,-0.0441,-0.0441,-0.0441,0,0,-0.0705,-0.0701,-0.0705,-0.0695,-0.0685,-0.0678,-0.0671,-0.0664,-0.0652,-0.0621,-0.0589,-0.0553,-0.0513,-0.0468,-0.045,-0.0456,-0.0399,-0.0425,-0.0424,-0.0426,-0.0387,-0.0381,-0.0376,-0.044,-0.044,-0.044,0,0,-0.0716,-0.0714,-0.0718,-0.0708,-0.0696,-0.0684,-0.0686,-0.0667,-0.0647,-0.0617,-0.0584,-0.0536,-0.0496,-0.0449,-0.0426,-0.0397,-0.0388,-0.0397,-0.0395,-0.0356,-0.0351,-0.0347,-0.0312,-0.0304,-0.0399,-0.0399,-0.0399,0,-0.0721,-0.073,-0.0715,-0.0712,-0.0711,-0.069,-0.0691,-0.0667,-0.0634,-0.0613,-0.0603,-0.052,-0.0482,-0.0423,-0.0404,-0.0391,-0.0376,-0.0407,-0.0354,-0.0349,-0.0344,-0.031,-0.0301,-0.0399,-0.0399,-0.0399,-0.0399,0,-0.0731,-0.0741,-0.074,-0.073,-0.0719,-0.0718,-0.0687,-0.0666,-0.0647,-0.0619,-0.0558,-0.0496,-0.045,-0.0427,-0.0404,-0.0353,-0.0353,-0.0354,-0.0362,-0.0338,-0.0303,-0.0294,-0.0398,-0.0398,-0.0398,-0.0398,0,0,-0.074,-0.0747,-0.0748,-0.0759,-0.0733,-0.0732,-0.0698,-0.0665,-0.0652,-0.0593,-0.0566,-0.0475,-0.0449,-0.042,-0.0382,-0.0342,-0.0284,-0.0339,-0.0337,-0.0307,-0.0205,-0.0152,-0.0138,-0.0282,-0.028,-0.0279,-0.0191,0,-0.0753,-0.0772,-0.076,-0.0776,-0.0788,-0.0754,-0.073,-0.0692,-0.065,-0.0612,-0.0533,-0.0489,-0.0445,-0.0426,-0.0372,-0.031,-0.0263,-0.0308,-0.0229,-0.0227,-0.0185,-0.0126,-0.0126,-0.0043,-0.0182,-0.0181,-0.018,0,-0.0771,-0.0787,-0.0808,-0.0821,-0.0819,-0.0815,-0.0785,-0.076,-0.0685,-0.0651,-0.0581,-0.0529,-0.0441,-0.0423,-0.029,-0.0326,-0.0265,-0.0215,-0.021,-0.0159,-0.0158,-0.0089,-0.0022,0.0107,-0.0166,-0.0167,-0.0168,0,-0.0811,-0.0825,-0.085,-0.0853,-0.085,-0.0845,-0.0833,-0.0773,-0.0755,-0.0678,-0.0658,-0.0547,-0.0503,-0.0401,-0.0274,-0.0291,-0.0138,-0.015,-0.004,-0.0037,-0.0018,-0.0014,0.0181,-0.006,-0.0061,-0.0061,-0.0061,0,-0.0846,-0.087,-0.0877,-0.0896,-0.0923,-0.0895,-0.0899,-0.0863,-0.0813,-0.0793,-0.0689,-0.0647,-0.0499,-0.039,-0.0281,-0.0117,-0.0135,-0.0021,-0.0001,-0.0015,-0.0012,0.0115,0.0168,-0.0058,-0.0058,-0.0059,-0.006,0,-0.0896,-0.0897,-0.0937,-0.0946,-0.095,-0.0971,-0.0963,-0.0959,-0.0902,-0.0873,-0.0853,-0.0722,-0.0571,-0.0406,-0.0236,-0.0126,0.0103,0.0077,0.0057,0.0075,0.0292,0.0344,0.0555,0.0608,0.0209,0.0211,0.0213,0,-0.092,-0.0946,-0.0987,-0.1012,-0.1021,-0.1042,-0.1051,-0.1011,-0.1004,-0.0913,-0.0904,-0.0754,-0.0646,-0.0352,-0.0127,0.0095,0.0187,0.0228,0.0209,0.0333,0.0405,0.0439,0.0469,0.0234,0.0235,0.0237,0.0238,0,-0.0967,-0.0983,-0.1019,-0.1077,-0.1104,-0.1134,-0.1143,-0.116,-0.1102,-0.1068,-0.0986,-0.0893,-0.0591,-0.0331,-0.0021,0.0117,0.0324,0.0264,0.0397,0.0461,0.0505,0.0554,0.0143,0.025,0.0249,0.0248,0.0247,0.0247,-0.099,-0.1033,-0.1077,-0.1132,-0.1171,-0.1211,-0.1243,-0.1246,-0.1244,-0.1196,-0.1075,-0.0927,-0.0515,-0.0076,0.0096,0.047,0.0442,0.0557,0.0614,0.0642,0.0694,0.0322,0.045,0.045,0.045,0.0449,0.0449,0,-0.0999,-0.1053,-0.1119,-0.1184,-0.1242,-0.1245,-0.1288,-0.1312,-0.1328,-0.1258,-0.1171,-0.0749,-0.0346,0.0059,0.06,0.08,0.082,0.0901,0.0941,0.0954,0.0632,0.0634,0.0802,0.0802,0.0801,0.0801,0.0801,0.0801,-0.1001,-0.1066,-0.1113,-0.1219,-0.1272,-0.1339,-0.1371,-0.14,-0.1372,-0.1251,-0.1048,-0.0889,-0.0236,0.0636,0.1116,0.1154,0.1287,0.1291,0.1372,0.114,0.1111,0.1084,0.1101,0.1363,0.1364,0.1645,0.1648,0.1651]}],[{"header":{"parameterUnit":"m.s-1","parameterCategory":2,"la1":30.2991,"la2":30.254,"lo1":-89.0895,"lo2":-89.0444,"dy":0.0017,"dx":0.0017,"nx":28,"ny":28,"refTime":"2024-09-25T21:00:00:Z","depth":"2","parameterNumber":2,"parameterNumberName":"U-component_of_CURRENTS"},"data":[0,0,0,0,0,0,0,0,0,0,0,0,0,0,0,0,0,0,0,0,0,0,0,0,0,0,0,0,0,0,0,0,0,0,0,0,0,0,0,0,0,0,0,0,0,0,0,0,0,0,0,0,0,0,0,0,0,0,-0.2525,-0.2526,0,-0.2569,-0.257,-0.2571,-0.2584,-0.2584,-0.2584,-0.2583,-0.2579,-0.2579,-0.2579,0,0,0,0,0,0,0,0,0,0,0,0,0,-0.2425,-0.2427,-0.2525,-0.2526,-0.2526,-0.2569,-0.257,-0.2571,-0.2584,-0.2584,-0.2584,-0.2583,-0.2579,-0.2579,-0.2579,0,0,0,0,0,0,0,0,0,0,0,0,0,-0.2469,-0.2427,-0.2525,-0.2538,-0.2539,-0.2569,-0.257,-0.2571,-0.2584,-0.2584,-0.2584,-0.2583,-0.2579,-0.2579,-0.2579,-0.2588,0,0,-0.258,-0.258,0,0,0,0,0,0,0,0,-0.2467,-0.2473,-0.2536,-0.2537,-0.2539,-0.257,-0.2533,-0.2574,-0.2584,-0.2568,-0.2583,-0.2583,-0.2571,-0.2572,-0.2583,-0.2588,-0.2588,-0.258,-0.258,-0.258,-0.258,0,0,0,0,0,0,0,-0.2463,-0.2471,-0.2543,-0.2536,-0.2538,-0.2532,-0.2538,-0.2541,-0.2571,-0.2569,-0.257,-0.2574,-0.2572,-0.2583,-0.2583,-0.2588,-0.258,-0.258,-0.258,-0.258,-0.2629,-0.263,0,0,0,0,0,0,-0.2459,-0.2468,-0.2542,-0.2545,-0.25,-0.2534,-0.2541,-0.2561,-0.2572,-0.2573,-0.2575,-0.2575,-0.2583,-0.2582,-0.2582,-0.2607,-0.258,-0.258,-0.258,-0.2628,-0.2629,-0.2631,0,0,0,0,0,0,-0.2457,-0.2466,-0.254,-0.2506,-0.2515,-0.2536,-0.2559,-0.2562,-0.2588,-0.2576,-0.2577,-0.2598,-0.2582,-0.2582,-0.2585,-0.2606,-0.258,-0.258,-0.2626,-0.2628,-0.263,-0.2647,0,0,0,0,0,0,-0.2455,-0.2466,-0.249,-0.2506,-0.2516,-0.2567,-0.2559,-0.2563,-0.2589,-0.2591,-0.2596,-0.2595,-0.2582,-0.2585,-0.2585,-0.2606,-0.258,-0.2625,-0.2627,-0.2629,-0.2645,-0.2649,-0.2653,0,0,0,0,0,-0.2451,-0.249,-0.2492,-0.2501,-0.2547,-0.2568,-0.2573,-0.2586,-0.2591,-0.2607,-0.2601,-0.2595,-0.26,-0.2585,-0.2586,-0.2607,-0.2624,-0.2627,-0.2629,-0.2643,-0.2648,-0.2653,0,0,0,0,0,0,-0.247,-0.2495,-0.2498,-0.2545,-0.2556,-0.257,-0.2588,-0.2599,-0.261,-0.2607,-0.26,-0.2598,-0.2613,-0.261,-0.2595,-0.2631,-0.2616,-0.2619,-0.2627,-0.2631,-0.2635,-0.2616,-0.2581,0,0,0,0,0,-0.2482,-0.251,-0.2527,-0.2562,-0.2568,-0.2581,-0.2596,-0.2601,-0.2607,-0.2614,-0.2618,-0.2621,-0.2625,-0.2626,-0.263,-0.2644,-0.2641,-0.2663,-0.2667,-0.267,-0.2657,-0.2664,-0.2667,-0.2639,-0.2639,-0.2639,0,0,-0.2497,-0.2515,-0.2532,-0.2566,-0.2574,-0.2591,-0.259,-0.261,-0.2625,-0.261,-0.2635,-0.2635,-0.2633,-0.2645,-0.2654,-0.2644,-0.2683,-0.2673,-0.2676,-0.266,-0.2667,-0.267,-0.2672,-0.2641,-0.2641,-0.2641,0,0,-0.252,-0.2555,-0.2573,-0.2586,-0.26,-0.261,-0.262,-0.2638,-0.2647,-0.2665,-0.2658,-0.2659,-0.2682,-0.2671,-0.267,-0.27,-0.2705,-0.2724,-0.2723,-0.2731,-0.2733,-0.2734,-0.2756,-0.2759,-0.2723,-0.2724,-0.2724,0,-0.2529,-0.256,-0.2582,-0.2596,-0.2606,-0.2621,-0.2632,-0.2652,-0.267,-0.2674,-0.2675,-0.2697,-0.2687,-0.2694,-0.2697,-0.2705,-0.2721,-0.2702,-0.2734,-0.2735,-0.2736,-0.2758,-0.2761,-0.2725,-0.2725,-0.2724,-0.2724,0,-0.2549,-0.258,-0.2591,-0.2613,-0.2635,-0.2645,-0.2665,-0.269,-0.2705,-0.2714,-0.2731,-0.2719,-0.2726,-0.2735,-0.2717,-0.273,-0.2744,-0.2738,-0.2716,-0.2739,-0.2762,-0.2765,-0.2726,-0.2726,-0.2726,-0.2725,0,0,-0.2518,-0.2589,-0.2584,-0.2601,-0.2637,-0.2651,-0.2687,-0.2709,-0.2736,-0.2748,-0.2776,-0.2759,-0.2754,-0.2752,-0.2744,-0.2741,-0.2757,-0.2741,-0.2741,-0.2752,-0.2795,-0.2728,-0.2725,-0.2764,-0.2764,-0.2764,-0.2816,0,-0.2505,-0.2542,-0.2579,-0.2609,-0.2628,-0.2663,-0.27,-0.2729,-0.2758,-0.2797,-0.2782,-0.2804,-0.2764,-0.2772,-0.276,-0.2761,-0.2762,-0.2744,-0.2779,-0.278,-0.2707,-0.2724,-0.2451,-0.2466,-0.2819,-0.2819,-0.2819,0,-0.2478,-0.2514,-0.2544,-0.2612,-0.2621,-0.2646,-0.2701,-0.2734,-0.2792,-0.2815,-0.2829,-0.2842,-0.2831,-0.2807,-0.2796,-0.2793,-0.2787,-0.2786,-0.2788,-0.2712,-0.2716,-0.2497,-0.2458,-0.2824,-0.2823,-0.2823,-0.2823,0,-0.2416,-0.2475,-0.2501,-0.252,-0.2606,-0.2624,-0.2662,-0.2727,-0.2753,-0.2825,-0.2855,-0.2867,-0.287,-0.2863,-0.2838,-0.2829,-0.2845,-0.2837,-0.2774,-0.2772,-0.2535,-0.2509,-0.2832,-0.2832,-0.2832,-0.2832,-0.2832,0,-0.2374,-0.2391,-0.2476,-0.2489,-0.2518,-0.259,-0.2624,-0.2678,-0.2751,-0.2769,-0.2843,-0.2854,-0.2881,-0.2893,-0.2872,-0.2824,-0.2868,-0.2768,-0.2771,-0.2537,-0.2513,-0.2813,-0.281,-0.2834,-0.2834,-0.2833,-0.2833,0,-0.2297,-0.2358,-0.239,-0.2472,-0.2491,-0.2507,-0.2579,-0.2598,-0.2695,-0.2729,-0.2749,-0.2841,-0.2847,-0.2879,-0.2886,-0.285,-0.2832,-0.2809,-0.2542,-0.2511,-0.2752,-0.275,-0.2746,-0.2744,-0.2742,-0.2741,-0.274,0,-0.2267,-0.2274,-0.2345,-0.2343,-0.2371,-0.2411,-0.2423,-0.2539,-0.2557,-0.2687,-0.2679,-0.2754,-0.2741,-0.2765,-0.2719,-0.2699,-0.2782,-0.2467,-0.2379,-0.2735,-0.274,-0.274,-0.274,-0.2089,-0.2082,-0.2077,-0.2073,0,-0.2188,-0.2208,-0.2223,-0.2221,-0.2229,-0.2251,-0.2283,-0.2303,-0.2424,-0.2473,-0.2514,-0.2537,-0.2565,-0.2423,-0.2441,-0.2386,-0.2448,-0.2359,-0.2784,-0.2158,-0.212,-0.2124,-0.2144,-0.2025,-0.203,-0.2034,-0.2036,-0.2038,-0.2097,-0.2074,-0.2075,-0.2058,-0.2067,-0.2053,-0.2035,-0.2084,-0.2111,-0.2155,-0.2266,-0.2247,-0.2246,-0.213,-0.2041,-0.1997,-0.2171,-0.2065,-0.2079,-0.21,-0.2018,-0.1979,-0.1845,-0.1849,-0.1852,-0.1854,-0.1857,0,-0.1952,-0.193,-0.1903,-0.188,-0.1825,-0.1892,-0.1899,-0.1857,-0.1837,-0.191,-0.1929,-0.1756,-0.1666,-0.1703,-0.1546,-0.1538,-0.1497,-0.1476,-0.1396,-0.1443,-0.1485,-0.1371,-0.1027,-0.1025,-0.1023,-0.1021,0,0,-0.1865,-0.178,-0.1763,-0.1633,-0.1618,-0.1526,-0.1508,-0.1481,-0.1498,-0.1459,-0.1468,-0.1595,-0.1645,-0.1346,-0.1258,-0.1123,-0.1276,-0.1059,-0.1714,-0.1664,-0.1704,-0.1802,-0.1677,0,0,0,0,0]},{"header":{"parameterUnit":"m.s-1","parameterCategory":2,"la1":30.2991,"la2":30.254,"lo1":-89.0895,"lo2":-89.0444,"dy":0.0017,"dx":0.0017,"nx":28,"ny":28,"refTime":"2024-09-25T21:00:00:Z","depth":"2","parameterNumber":3,"parameterNumberName":"V-component_of_CURRENTS"},"data":[0,0,0,0,0,0,0,0,0,0,0,0,0,0,0,0,0,0,0,0,0,0,0,0,0,0,0,0,0,0,0,0,0,0,0,0,0,0,0,0,0,0,0,0,0,0,0,0,0,0,0,0,0,0,0,0,0,0,-0.0487,-0.0486,0,-0.0449,-0.0449,-0.0448,-0.0418,-0.0418,-0.0418,-0.0418,-0.0378,-0.0377,-0.0376,0,0,0,0,0,0,0,0,0,0,0,0,0,-0.0492,-0.0492,-0.0487,-0.0486,-0.0486,-0.045,-0.0449,-0.0448,-0.0418,-0.0418,-0.0418,-0.0418,-0.0378,-0.0377,-0.0376,0,0,0,0,0,0,0,0,0,0,0,0,0,-0.0474,-0.0492,-0.0487,-0.0468,-0.0466,-0.045,-0.0449,-0.0448,-0.0418,-0.0418,-0.0418,-0.0418,-0.0379,-0.0378,-0.0376,-0.0372,0,0,-0.0372,-0.0371,0,0,0,0,0,0,0,0,-0.0475,-0.0474,-0.0471,-0.0469,-0.0467,-0.044,-0.0436,-0.0423,-0.0418,-0.0435,-0.0418,-0.0418,-0.04,-0.0397,-0.0388,-0.037,-0.0368,-0.0372,-0.0371,-0.037,-0.037,0,0,0,0,0,0,0,-0.0477,-0.0475,-0.047,-0.0471,-0.0469,-0.0448,-0.0446,-0.0433,-0.0417,-0.0433,-0.0431,-0.043,-0.0399,-0.0389,-0.0387,-0.0368,-0.0372,-0.0371,-0.037,-0.0369,-0.0331,-0.0331,0,0,0,0,0,0,-0.0487,-0.0477,-0.0471,-0.0469,-0.0473,-0.0449,-0.0446,-0.0447,-0.0418,-0.0413,-0.043,-0.0429,-0.0392,-0.0388,-0.0385,-0.0361,-0.037,-0.0369,-0.0368,-0.0331,-0.0331,-0.0331,0,0,0,0,0,0,-0.0488,-0.0487,-0.0473,-0.0473,-0.047,-0.0449,-0.0451,-0.0447,-0.0451,-0.0416,-0.0411,-0.0441,-0.0391,-0.0387,-0.0361,-0.036,-0.0368,-0.0367,-0.0332,-0.0331,-0.0331,-0.0324,0,0,0,0,0,0,-0.0488,-0.0488,-0.0499,-0.0474,-0.0471,-0.0466,-0.0451,-0.0446,-0.0451,-0.0449,-0.0423,-0.0418,-0.0391,-0.0363,-0.036,-0.0358,-0.0366,-0.0332,-0.0332,-0.0331,-0.0324,-0.0323,-0.0323,0,0,0,0,0,-0.0488,-0.0506,-0.05,-0.05,-0.0485,-0.0466,-0.0462,-0.0445,-0.0452,-0.045,-0.0421,-0.042,-0.036,-0.0362,-0.0358,-0.0356,-0.0332,-0.0332,-0.0331,-0.0325,-0.0323,-0.0323,0,0,0,0,0,0,-0.0519,-0.0504,-0.0497,-0.0511,-0.0491,-0.0462,-0.0465,-0.046,-0.0438,-0.0439,-0.0411,-0.0403,-0.0378,-0.0373,-0.0377,-0.0345,-0.0349,-0.0348,-0.0345,-0.0344,-0.0343,-0.0348,-0.0365,0,0,0,0,0,-0.0531,-0.0537,-0.0514,-0.0524,-0.0519,-0.0498,-0.0494,-0.048,-0.0456,-0.0449,-0.0428,-0.0405,-0.0373,-0.0364,-0.0336,-0.0324,-0.0305,-0.0323,-0.0323,-0.0322,-0.0323,-0.0283,-0.0278,-0.033,-0.033,-0.033,0,0,-0.0547,-0.0539,-0.0543,-0.053,-0.0516,-0.0509,-0.0494,-0.0489,-0.0479,-0.0448,-0.0432,-0.04,-0.0367,-0.0336,-0.0328,-0.0334,-0.0296,-0.0321,-0.0321,-0.0322,-0.0282,-0.0277,-0.0273,-0.033,-0.033,-0.033,0,0,-0.057,-0.0572,-0.0579,-0.0566,-0.0548,-0.053,-0.0536,-0.0511,-0.0495,-0.0471,-0.0438,-0.04,-0.0376,-0.0332,-0.0312,-0.0297,-0.0288,-0.0306,-0.0308,-0.0269,-0.0265,-0.026,-0.0223,-0.0216,-0.0311,-0.0311,-0.0311,0,-0.0584,-0.0596,-0.0578,-0.0577,-0.0572,-0.0546,-0.0548,-0.0525,-0.0492,-0.0473,-0.0468,-0.0396,-0.0367,-0.0314,-0.03,-0.0293,-0.0277,-0.0312,-0.0267,-0.0263,-0.0258,-0.0221,-0.0213,-0.0311,-0.0311,-0.0311,-0.0311,0,-0.0603,-0.0617,-0.0621,-0.0609,-0.0598,-0.0598,-0.0563,-0.0547,-0.0531,-0.0499,-0.0448,-0.0391,-0.035,-0.0333,-0.0309,-0.0265,-0.0265,-0.0264,-0.0268,-0.0252,-0.0215,-0.0206,-0.031,-0.031,-0.031,-0.031,0,0,-0.0625,-0.0632,-0.0635,-0.0645,-0.0619,-0.0615,-0.0589,-0.0554,-0.0543,-0.0491,-0.0466,-0.0386,-0.0358,-0.0333,-0.0297,-0.0258,-0.02,-0.0255,-0.0253,-0.0215,-0.0119,-0.0071,-0.0057,-0.0198,-0.0196,-0.0195,-0.0103,0,-0.0645,-0.0667,-0.0653,-0.0673,-0.0687,-0.065,-0.0631,-0.0591,-0.0551,-0.0516,-0.044,-0.0401,-0.0359,-0.0341,-0.029,-0.0224,-0.0179,-0.0226,-0.0143,-0.014,-0.0097,-0.0046,-0.0056,0.003,-0.0094,-0.0093,-0.0092,0,-0.0668,-0.0685,-0.071,-0.0722,-0.0721,-0.0718,-0.0688,-0.0665,-0.0593,-0.056,-0.0494,-0.0442,-0.0358,-0.0341,-0.0208,-0.0244,-0.0182,-0.0131,-0.0126,-0.0079,-0.0076,-0.0008,0.005,-0.0077,-0.0078,-0.0079,-0.008,0,-0.071,-0.0727,-0.0755,-0.0757,-0.0754,-0.0751,-0.0739,-0.068,-0.0663,-0.0589,-0.0569,-0.0462,-0.0419,-0.0318,-0.0191,-0.0208,-0.0053,-0.0064,0.0042,0.0046,0.0056,0.0059,0.0025,0.0025,0.0025,0.0025,0.0024,0,-0.0748,-0.0774,-0.0782,-0.0803,-0.0831,-0.0803,-0.0807,-0.0774,-0.0724,-0.0704,-0.0602,-0.056,-0.0415,-0.0305,-0.0196,-0.0034,-0.005,0.006,0.0081,0.0059,0.0061,-0.0025,-0.0032,0.0028,0.0027,0.0027,0.0026,0,-0.0799,-0.0801,-0.0844,-0.0855,-0.0859,-0.0882,-0.0873,-0.0867,-0.0811,-0.0782,-0.0763,-0.0633,-0.0483,-0.0319,-0.0149,-0.0042,0.0105,0.0161,0.0131,0.0148,0.0173,0.0165,0.0284,0.0287,0.0289,0.0291,0.0292,0,-0.0825,-0.0852,-0.0895,-0.0922,-0.0932,-0.0953,-0.0961,-0.0921,-0.0912,-0.0821,-0.0812,-0.0663,-0.0555,-0.0263,-0.004,0.0181,0.0164,0.0297,0.0274,0.0196,0.0204,0.0192,0.0182,0.0289,0.029,0.0292,0.0292,0,-0.0873,-0.089,-0.0928,-0.0988,-0.1015,-0.1044,-0.1052,-0.1067,-0.1009,-0.0972,-0.089,-0.0797,-0.0497,-0.0242,0.0065,0.0195,0.0265,0.0328,0.0267,0.0226,0.0208,0.0214,0.0202,0.0303,0.0302,0.0301,0.0301,0.03,-0.0898,-0.0941,-0.0987,-0.1044,-0.1083,-0.1123,-0.1153,-0.1142,-0.1136,-0.1058,-0.0952,-0.0771,-0.0511,-0.007,0.015,0.0375,0.0355,0.0411,0.0404,0.0396,0.0381,0.0369,0.0491,0.0491,0.0491,0.0491,0.0491,0,-0.0903,-0.0963,-0.103,-0.1096,-0.1147,-0.1158,-0.1198,-0.1194,-0.1191,-0.1081,-0.0969,-0.0658,-0.0352,-0.0075,0.0284,0.0478,0.0453,0.0512,0.0437,0.0427,0.0418,0.04,0.0516,0.0517,0.0517,0.0517,0,0,-0.0905,-0.0968,-0.1014,-0.1118,-0.1177,-0.123,-0.126,-0.1239,-0.1168,-0.1067,-0.0916,-0.0681,-0.035,-0.0092,0.0162,0.0345,0.0327,0.0366,0.0329,0.02,0.0188,0.0352,0.0313,0,0,0,0,0]}],[{"header":{"parameterUnit":"m.s-1","parameterCategory":2,"la1":30.2991,"la2":30.254,"lo1":-89.0895,"lo2":-89.0444,"dy":0.0017,"dx":0.0017,"nx":28,"ny":28,"refTime":"2024-09-25T21:00:00:Z","depth":"4","parameterNumber":2,"parameterNumberName":"U-component_of_CURRENTS"},"data":[0,0,0,0,0,0,0,0,0,0,0,0,0,0,0,0,0,0,0,0,0,0,0,0,0,0,0,0,0,0,0,0,0,0,0,0,0,0,0,0,0,0,0,0,0,0,0,0,0,0,0,0,0,0,0,0,0,0,-0.1203,-0.1202,0,-0.1164,-0.1163,-0.1162,-0.116,-0.1161,-0.1161,-0.1162,-0.1195,-0.1195,-0.1195,0,0,0,0,0,0,0,0,0,0,0,0,0,-0.1156,-0.1157,-0.1203,-0.1202,-0.1202,-0.1164,-0.1163,-0.1162,-0.116,-0.1161,-0.1161,-0.1162,-0.1195,-0.1195,-0.1195,0,0,0,0,0,0,0,0,0,0,0,0,0,-0.115,-0.1157,-0.1203,-0.1198,-0.1198,-0.1164,-0.1163,-0.1162,-0.116,-0.1161,-0.1162,-0.1163,-0.1194,-0.1195,-0.1195,-0.1177,0,0,-0.1196,-0.1196,0,0,0,0,0,0,0,0,-0.1151,-0.1152,-0.1199,-0.1198,-0.1198,-0.117,-0.1159,-0.1172,-0.1159,-0.1171,-0.1162,-0.1163,-0.1194,-0.1194,-0.118,-0.1178,-0.118,-0.1196,-0.1196,-0.1197,-0.1197,0,0,0,0,0,0,0,-0.1151,-0.1153,-0.1184,-0.1199,-0.1198,-0.1158,-0.1159,-0.116,-0.1177,-0.117,-0.1171,-0.117,-0.1194,-0.118,-0.1181,-0.118,-0.1196,-0.1197,-0.1197,-0.1197,-0.1244,-0.1245,0,0,0,0,0,0,-0.1167,-0.1154,-0.1186,-0.1184,-0.1179,-0.1158,-0.1159,-0.1176,-0.1175,-0.1176,-0.1169,-0.117,-0.1178,-0.1181,-0.1182,-0.1238,-0.1197,-0.1197,-0.1197,-0.1243,-0.1245,-0.1246,0,0,0,0,0,0,-0.1166,-0.1171,-0.1187,-0.1168,-0.1168,-0.1159,-0.1177,-0.1174,-0.1185,-0.1174,-0.1176,-0.1186,-0.1179,-0.1182,-0.1232,-0.1236,-0.1197,-0.1197,-0.1242,-0.1244,-0.1245,-0.1299,0,0,0,0,0,0,-0.1165,-0.1171,-0.1182,-0.117,-0.117,-0.1196,-0.1176,-0.1173,-0.1183,-0.1184,-0.1188,-0.1191,-0.118,-0.1232,-0.1233,-0.1236,-0.1198,-0.1241,-0.1243,-0.1245,-0.1296,-0.1302,-0.1308,0,0,0,0,0,-0.1164,-0.1173,-0.1183,-0.1187,-0.1189,-0.1198,-0.1195,-0.1187,-0.1183,-0.1198,-0.1217,-0.1192,-0.1243,-0.1234,-0.1234,-0.1238,-0.124,-0.1242,-0.1245,-0.1293,-0.1301,-0.1308,0,0,0,0,0,0,-0.1154,-0.1174,-0.1185,-0.12,-0.1215,-0.1199,-0.1205,-0.1201,-0.122,-0.1235,-0.122,-0.1225,-0.1284,-0.1251,-0.124,-0.1257,-0.1231,-0.1233,-0.1268,-0.1275,-0.1281,-0.1323,-0.1198,0,0,0,0,0,-0.116,-0.1174,-0.1194,-0.1206,-0.1224,-0.122,-0.1221,-0.1228,-0.1242,-0.125,-0.1262,-0.1267,-0.1284,-0.1276,-0.1306,-0.13,-0.1307,-0.1298,-0.1304,-0.1309,-0.1344,-0.133,-0.1338,-0.1254,-0.1254,-0.1254,0,0,-0.1161,-0.1169,-0.1179,-0.1205,-0.1216,-0.1245,-0.1224,-0.1249,-0.1266,-0.1252,-0.1298,-0.1321,-0.1303,-0.1328,-0.1342,-0.1297,-0.1344,-0.1312,-0.1316,-0.135,-0.1333,-0.1341,-0.1349,-0.1255,-0.1255,-0.1255,0,0,-0.1169,-0.1186,-0.1212,-0.1229,-0.1261,-0.1268,-0.1287,-0.1312,-0.1321,-0.1372,-0.1368,-0.1406,-0.1416,-0.1403,-0.1391,-0.1441,-0.1412,-0.1425,-0.1445,-0.143,-0.1437,-0.1443,-0.1496,-0.1506,-0.1382,-0.1382,-0.1382,0,-0.1177,-0.1205,-0.1218,-0.1247,-0.1268,-0.1289,-0.1333,-0.1335,-0.1373,-0.1392,-0.141,-0.1463,-0.1456,-0.1454,-0.1473,-0.1456,-0.1461,-0.1416,-0.1438,-0.1443,-0.1449,-0.1502,-0.1512,-0.1385,-0.1384,-0.1384,-0.1384,0,-0.1197,-0.1233,-0.1251,-0.1303,-0.1329,-0.1366,-0.1395,-0.1426,-0.1458,-0.1475,-0.1541,-0.155,-0.1575,-0.1554,-0.1532,-0.1543,-0.1545,-0.1482,-0.142,-0.1461,-0.1514,-0.1524,-0.1389,-0.1388,-0.1387,-0.1386,0,0,-0.12,-0.126,-0.1271,-0.1306,-0.1366,-0.139,-0.1433,-0.1482,-0.1507,-0.1565,-0.1605,-0.1639,-0.1666,-0.1657,-0.1619,-0.1585,-0.1637,-0.1543,-0.154,-0.16,-0.1654,-0.1551,-0.1553,-0.1556,-0.1557,-0.1558,-0.1689,0,-0.1227,-0.1279,-0.1314,-0.1384,-0.1422,-0.1461,-0.1502,-0.1544,-0.158,-0.1625,-0.164,-0.1687,-0.1685,-0.1696,-0.1681,-0.1666,-0.1661,-0.1612,-0.1604,-0.1607,-0.151,-0.1559,-0.1562,-0.1696,-0.1699,-0.17,-0.1701,0,-0.1243,-0.1273,-0.1342,-0.1426,-0.1454,-0.1506,-0.1573,-0.1608,-0.1659,-0.1696,-0.1748,-0.1767,-0.1799,-0.1756,-0.1793,-0.1759,-0.1736,-0.1706,-0.1708,-0.1604,-0.1521,-0.1638,-0.172,-0.1718,-0.1717,-0.1716,-0.1715,0,-0.1208,-0.13,-0.1353,-0.1376,-0.147,-0.152,-0.158,-0.164,-0.1676,-0.1732,-0.1783,-0.1832,-0.1871,-0.186,-0.1856,-0.182,-0.1873,-0.1802,-0.1703,-0.1699,-0.1729,-0.172,-0.1813,-0.1813,-0.1812,-0.1812,-0.1812,0,-0.12,-0.1244,-0.1345,-0.1364,-0.1446,-0.152,-0.1606,-0.1651,-0.1731,-0.1787,-0.1827,-0.187,-0.1889,-0.1918,-0.1896,-0.1866,-0.1921,-0.1752,-0.1717,-0.1754,-0.1747,-0.1739,-0.1728,-0.1817,-0.1816,-0.1815,-0.1814,0,-0.1136,-0.1205,-0.1268,-0.1383,-0.1427,-0.1481,-0.1625,-0.1671,-0.1757,-0.1824,-0.185,-0.1928,-0.1971,-0.1983,-0.1972,-0.1913,-0.1876,-0.1832,-0.1951,-0.1914,-0.1718,-0.1709,-0.1767,-0.1765,-0.1762,-0.176,-0.1759,0,-0.1101,-0.1121,-0.1253,-0.1306,-0.1368,-0.1468,-0.1539,-0.1661,-0.1704,-0.1847,-0.1868,-0.1945,-0.198,-0.1928,-0.194,-0.1917,-0.1853,-0.1855,-0.1731,-0.175,-0.171,-0.1705,-0.1699,-0.1755,-0.1754,-0.1754,-0.1753,0,-0.1028,-0.1086,-0.1142,-0.1235,-0.133,-0.1411,-0.1519,-0.1547,-0.1682,-0.1792,-0.1824,-0.1828,-0.1873,-0.1865,-0.185,-0.1817,-0.1868,-0.183,-0.1833,-0.1716,-0.1735,-0.1697,-0.1694,-0.1745,-0.1746,-0.1747,-0.1748,0,-0.0986,-0.1005,-0.1089,-0.1161,-0.1262,-0.1309,-0.1388,-0.1459,-0.1523,-0.1677,-0.1699,-0.1778,-0.1869,-0.1817,-0.1814,-0.1772,-0.1722,-0.1641,-0.1653,-0.1662,-0.1556,-0.156,-0.1512,0,0,0,0,0,-0.0939,-0.095,-0.1008,-0.1089,-0.1171,-0.122,-0.1349,-0.1428,-0.1573,-0.1552,-0.1613,-0.1641,-0.1641,-0.1687,-0.1613,-0.1757,-0.1723,-0.1665,-0.1635,-0.1701,-0.171,-0.1588,0,0,0,0,0,0,-0.0925,-0.0964,-0.0975,-0.099,-0.1017,-0.1096,-0.1166,-0.1272,-0.1263,-0.1414,-0.1413,-0.1535,-0.1546,-0.1645,-0.1574,-0.1587,-0.1534,-0.1726,-0.1722,-0.1695,-0.1704,-0.1711,-0.1589,0,0,0,0,0]},{"header":{"parameterUnit":"m.s-1","parameterCategory":2,"la1":30.2991,"la2":30.254,"lo1":-89.0895,"lo2":-89.0444,"dy":0.0017,"dx":0.0017,"nx":28,"ny":28,"refTime":"2024-09-25T21:00:00:Z","depth":"4","parameterNumber":3,"parameterNumberName":"V-component_of_CURRENTS"},"data":[0,0,0,0,0,0,0,0,0,0,0,0,0,0,0,0,0,0,0,0,0,0,0,0,0,0,0,0,0,0,0,0,0,0,0,0,0,0,0,0,0,0,0,0,0,0,0,0,0,0,0,0,0,0,0,0,0,0,0.0096,0.0097,0,0.0199,0.02,0.0202,0.0256,0.0257,0.0257,0.0257,0.0334,0.0336,0.0338,0,0,0,0,0,0,0,0,0,0,0,0,0,0.0079,0.0078,0.0096,0.0097,0.0099,0.0199,0.02,0.0202,0.0256,0.0257,0.0257,0.0257,0.0333,0.0336,0.0338,0,0,0,0,0,0,0,0,0,0,0,0,0,0.0124,0.0078,0.0096,0.0138,0.0143,0.0199,0.02,0.0202,0.0256,0.0257,0.0257,0.0257,0.0333,0.0335,0.0338,0.0352,0,0,0.0347,0.0348,0,0,0,0,0,0,0,0,0.0121,0.0124,0.0131,0.0135,0.0141,0.0215,0.0223,0.0251,0.0256,0.0213,0.0257,0.0257,0.0292,0.0298,0.0317,0.0356,0.0359,0.0347,0.0349,0.035,0.0351,0,0,0,0,0,0,0,0.0118,0.0121,0.0137,0.0132,0.0138,0.0198,0.0203,0.0229,0.0249,0.0217,0.0221,0.0233,0.0294,0.0314,0.0319,0.036,0.0347,0.035,0.0352,0.0353,0.0409,0.0408,0,0,0,0,0,0,0.0098,0.0117,0.0133,0.014,0.0132,0.0197,0.0203,0.0191,0.025,0.0259,0.0233,0.0235,0.0309,0.0316,0.0322,0.0324,0.035,0.0353,0.0355,0.0409,0.0409,0.0408,0,0,0,0,0,0,0.0097,0.0097,0.0129,0.0133,0.0141,0.0196,0.0183,0.0193,0.0218,0.0262,0.0271,0.0247,0.031,0.0318,0.0331,0.0328,0.0354,0.0357,0.0409,0.0409,0.0408,0.0338,0,0,0,0,0,0,0.0095,0.0096,0.0092,0.013,0.014,0.0142,0.0183,0.0195,0.0225,0.0229,0.0278,0.0285,0.031,0.0326,0.0334,0.0332,0.0359,0.041,0.0409,0.0409,0.0341,0.0336,0.0331,0,0,0,0,0,0.0094,0.008,0.009,0.0093,0.0127,0.0141,0.0151,0.0193,0.0225,0.022,0.0254,0.0284,0.0329,0.0327,0.0337,0.0336,0.041,0.0409,0.0409,0.0343,0.0337,0.0331,0,0,0,0,0,0,0.0074,0.0085,0.0097,0.0088,0.0105,0.015,0.0157,0.0193,0.0221,0.0224,0.0275,0.0283,0.0295,0.0325,0.0322,0.0352,0.0377,0.0378,0.0324,0.0319,0.0314,0.0302,0.0362,0,0,0,0,0,0.0065,0.0063,0.0075,0.0077,0.0069,0.0115,0.0134,0.0156,0.0184,0.0199,0.0236,0.0273,0.0301,0.0315,0.0339,0.0353,0.0386,0.0361,0.0356,0.0351,0.0349,0.04,0.0399,0.0406,0.0406,0.0407,0,0,0.0057,0.0072,0.0068,0.0074,0.0088,0.0075,0.0125,0.0134,0.0143,0.0201,0.022,0.0253,0.0299,0.031,0.032,0.0334,0.0362,0.0351,0.0346,0.0346,0.0399,0.0399,0.0398,0.0406,0.0406,0.0406,0,0,0.0038,0.0043,0.0022,0.0025,0.0038,0.0057,0.0055,0.0083,0.0106,0.0122,0.0171,0.0196,0.024,0.0271,0.0294,0.0278,0.0332,0.0296,0.0265,0.0314,0.0314,0.0314,0.0333,0.0336,0.0297,0.0296,0.0296,0,0.0025,0.0005,0.0022,0.0001,0.0002,0.004,0.0011,0.0039,0.008,0.0099,0.011,0.0189,0.022,0.0255,0.0247,0.0266,0.0299,0.0281,0.0307,0.0308,0.031,0.033,0.0334,0.0293,0.0293,0.0294,0.0294,0,-0.0015,-0.0033,-0.0048,-0.0065,-0.0063,-0.008,-0.006,-0.0045,-0.001,0.0027,0.0064,0.0108,0.0158,0.0175,0.0204,0.0238,0.0258,0.0291,0.0319,0.0304,0.0327,0.0332,0.0288,0.0289,0.029,0.0291,0,0,-0.006,-0.0079,-0.0086,-0.0104,-0.0103,-0.011,-0.0104,-0.0091,-0.0073,-0.0033,-0.0001,0.0043,0.0083,0.0113,0.0164,0.0205,0.0231,0.025,0.0254,0.0262,0.0327,0.0303,0.0306,0.0279,0.028,0.0281,0.033,0,-0.0106,-0.0153,-0.0147,-0.0192,-0.0225,-0.0195,-0.019,-0.016,-0.0121,-0.0083,-0.0018,0.002,0.0059,0.0083,0.013,0.021,0.0246,0.0214,0.0346,0.0349,0.0325,0.0312,0.0284,0.0334,0.0335,0.0336,0.0337,0,-0.0159,-0.0177,-0.0235,-0.0254,-0.027,-0.0286,-0.0269,-0.026,-0.0193,-0.0159,-0.0102,-0.0038,0.0023,0.0063,0.0178,0.0161,0.0234,0.0294,0.0298,0.0306,0.0335,0.0359,0.0347,0.0346,0.0346,0.0345,0.0344,0,-0.019,-0.0242,-0.0283,-0.0293,-0.031,-0.0323,-0.0328,-0.0283,-0.0276,-0.0201,-0.0182,-0.0086,-0.0046,0.0063,0.0179,0.0188,0.0311,0.034,0.0383,0.0381,0.042,0.0419,0.0425,0.0425,0.0424,0.0424,0.0424,0,-0.0233,-0.0269,-0.0305,-0.0327,-0.0378,-0.0369,-0.0398,-0.0375,-0.034,-0.0336,-0.0228,-0.0197,-0.0039,0.0055,0.0167,0.0278,0.03,0.0369,0.0396,0.0386,0.0381,0.0422,0.0421,0.0426,0.0426,0.0425,0.0425,0,-0.0252,-0.0278,-0.0334,-0.0375,-0.0396,-0.0429,-0.0469,-0.048,-0.0436,-0.0424,-0.0404,-0.0283,-0.0165,-0.0011,0.0162,0.0242,0.0367,0.0407,0.036,0.0384,0.0405,0.04,0.0449,0.0448,0.0448,0.0448,0.0448,0,-0.0261,-0.0289,-0.0372,-0.0424,-0.0452,-0.0503,-0.0538,-0.0527,-0.0535,-0.048,-0.0475,-0.0357,-0.0263,-0.0044,0.0118,0.032,0.0358,0.0413,0.0428,0.0388,0.0409,0.0405,0.04,0.0447,0.0447,0.0447,0.0447,0,-0.0272,-0.0307,-0.0361,-0.0465,-0.0533,-0.0596,-0.0642,-0.0658,-0.0635,-0.0602,-0.0522,-0.0388,-0.0255,-0.0065,0.0095,0.0245,0.0373,0.0411,0.0413,0.0427,0.0387,0.0407,0.0403,0.0446,0.0446,0.0446,0.0446,0,-0.0286,-0.0331,-0.0413,-0.0507,-0.0596,-0.0664,-0.0687,-0.0693,-0.069,-0.062,-0.06,-0.0428,-0.0324,-0.0105,0.004,0.0184,0.0223,0.0274,0.0284,0.0287,0.0231,0.0156,0.016,0,0,0,0,0,-0.0291,-0.0352,-0.0448,-0.0556,-0.0644,-0.0688,-0.0745,-0.0751,-0.0733,-0.0686,-0.0638,-0.0505,-0.0274,-0.0165,-0.0026,0.0023,0.0236,0.0188,0.0296,0.044,0.0441,0.0402,0,0,0,0,0,0,-0.0309,-0.0388,-0.0447,-0.057,-0.0644,-0.0728,-0.0766,-0.076,-0.072,-0.0679,-0.0552,-0.0472,-0.0245,-0.0346,-0.002,0.0023,0.0108,0.0304,0.0307,0.0439,0.044,0.0441,0.0402,0,0,0,0,0]}]]